SCP
1 1 1 1 0 0 0 0 0 0 0 0 0 0 0 0 0 0 1 1 1 1 1 1 1 1 1 1 1 1 1 1 1 1 1 1 1 1 1 1 1 1 1 1 1 1 1 1 1
1 1 1 0 0 0 0 0 0 0 0 0 0 0 0 0 0 0 1 1 1 1 1 1 1 1 1 1 1 1 1 1 1 1 1 1 1 1 1 1 1 1 1 1 1 1 1 1 1
1 1 0 0 0 0 0 0 0 0 0 0 0 0 0 0 0 1 1 1 1 1 1 1 1 1 1 1 1 1 1 1 1 1 1 1 1 1 1 1 1 1 1 1 1 1 1 1 1
1 1 0 0 0 0 0 0 0 0 0 0 0 0 0 0 1 1 1 1 1 1 1 1 1 1 1 1 1 1 1 1 1 1 1 1 1 1 1 1 1 1 1 1 1 1 1 1 1
1 1 0 0 0 0 0 0 0 0 0 0 0 0 1 1 1 1 1 1 1 1 1 1 1 1 1 1 1 1 1 1 1 1 1 1 1 1 1 1 1 1 1 1 1 1 1 1 1
1 1 0 0 0 0 0 0 0 0 0 0 0 0 1 1 1 1 1 1 1 1 0 0 1 1 0 0 0 0 0 0 1 1 1 1 1 1 1 1 1 1 1 1 1 1 1 1 1
1 1 0 0 0 0 0 0 0 0 0 0 0 1 1 1 1 1 1 1 1 0 0 0 0 0 0 0 0 0 0 0 0 0 0 0 1 1 1 1 1 1 1 1 1 1 1 1 1
1 1 0 0 0 0 0 0 0 0 0 0 0 1 1 1 1 1 1 1 0 0 0 0 0 0 0 0 0 0 0 0 0 0 0 0 0 0 1 1 1 1 1 1 1 1 1 1 1
1 1 0 0 0 0 0 0 0 0 1 1 1 1 1 2 2 1 1 1 0 0 0 0 0 0 0 0 0 0 0 0 0 0 0 0 0 0 1 1 1 1 1 1 1 1 1 1 1
1 1 0 0 0 0 0 0 0 1 1 1 1 1 2 2 1 1 1 0 0 0 0 0 0 0 0 0 0 0 0 0 0 0 0 0 0 0 1 1 1 1 1 1 1 1 1 1 1
1 1 1 1 1 1 0 0 0 0 1 1 1 2 1 1 1 1 0 0 0 0 0 0 0 0 0 0 0 0 0 0 0 0 0 0 0 0 1 1 1 1 1 1 1 1 1 1 1
1 1 1 1 1 1 0 0 0 0 0 1 2 2 1 1 1 0 0 0 0 0 0 0 0 0 0 0 0 0 0 0 0 0 0 0 0 0 0 1 1 1 1 1 1 1 1 1 1
1 1 1 1 1 0 0 0 0 0 1 1 2 1 1 1 1 0 0 0 0 0 0 0 0 0 0 0 0 0 0 0 0 0 0 0 0 0 0 0 1 1 1 1 1 1 1 1 1
1 1 1 1 1 0 0 0 0 0 1 1 1 1 1 1 0 0 0 0 0 0 0 0 0 0 0 0 0 0 0 0 0 0 0 0 0 0 0 0 0 0 0 0 1 1 1 1 1
1 1 1 1 0 0 0 0 0 1 1 1 1 1 1 1 0 0 0 0 0 0 0 0 0 0 0 0 0 0 0 0 0 0 0 0 0 0 0 0 0 0 0 0 0 0 0 0 1
1 1 0 0 0 0 0 0 0 1 1 1 1 1 1 1 0 0 0 0 0 0 0 0 0 0 0 0 0 0 0 0 0 0 0 0 0 0 0 0 0 0 0 0 0 0 0 0 0
1 1 0 0 0 0 0 0 1 1 1 1 1 1 1 1 0 0 0 0 0 0 0 0 0 0 0 0 0 0 0 0 0 0 0 0 0 0 0 0 0 0 0 0 0 0 0 0 0
0 0 0 0 0 0 0 0 1 1 1 1 1 1 1 1 0 0 0 0 0 0 0 0 0 0 0 0 0 0 0 0 0 0 0 0 0 0 0 0 0 0 0 0 0 0 0 0 0
0 0 0 0 0 0 0 0 0 1 1 1 1 1 1 1 0 0 0 0 0 0 0 0 0 0 0 0 0 0 0 0 0 0 0 0 0 0 0 0 0 0 0 0 0 0 0 0 0
0 0 0 0 0 0 0 0 0 1 1 1 1 1 1 0 0 0 0 0 0 0 0 0 0 0 0 0 0 0 0 0 0 0 0 0 0 0 0 0 0 0 0 0 0 0 0 0 0
0 0 0 0 0 0 0 0 0 0 0 1 1 1 1 0 0 0 0 0 0 0 0 0 0 0 0 0 0 0 0 0 0 0 0 0 0 0 0 0 0 0 0 0 0 0 0 0 0
0 0 0 0 0 0 0 0 0 0 0 1 1 1 1 0 0 0 0 0 0 0 0 0 0 0 0 0 0 0 0 0 0 0 0 0 0 0 0 0 0 0 0 0 0 0 0 0 0
0 0 0 0 0 0 0 0 0 0 0 0 1 1 0 0 0 0 1 1 1 0 0 0 0 0 0 0 0 0 0 0 0 0 0 0 0 0 0 0 0 0 0 0 0 0 0 0 0
0 0 0 0 0 0 0 0 0 0 0 0 0 0 0 0 0 0 1 1 1 0 0 0 0 0 0 0 0 0 0 0 0 0 0 0 0 0 0 0 0 0 0 0 0 0 0 0 0
0 0 0 0 0 0 0 0 0 0 0 0 0 0 0 1 1 1 1 1 1 1 0 0 0 0 0 0 0 0 0 0 0 0 0 0 0 0 0 0 0 0 0 0 0 0 0 0 0
0 0 0 0 0 0 0 0 0 0 0 0 0 0 0 0 1 1 1 2 1 1 0 0 0 0 0 0 0 0 0 0 0 0 0 0 0 0 0 0 0 0 0 0 0 0 0 0 0
0 0 0 0 0 0 0 0 0 0 0 0 0 0 0 0 1 1 1 1 1 1 1 0 0 0 0 0 0 0 0 0 0 0 0 0 0 0 0 0 0 0 0 0 0 0 0 0 0
0 0 0 0 0 0 0 0 0 0 0 0 0 0 0 0 0 1 1 1 1 1 1 1 0 0 0 0 0 0 0 0 0 0 0 0 0 0 0 0 0 0 0 0 0 0 0 0 0
0 0 0 0 0 0 0 0 0 0 0 0 0 0 0 0 0 1 1 1 1 1 1 1 0 0 0 0 0 0 0 0 0 0 0 0 0 0 0 0 0 0 0 0 0 0 0 0 0
0 0 0 0 0 0 0 0 0 0 0 0 0 0 0 0 0 1 1 1 1 1 1 0 0 0 0 0 0 0 0 0 0 0 0 0 0 0 0 0 0 0 0 0 0 0 0 0 0
Wind_Speed
5 5 4 1 2 3 4 3 3 3 4 6 6 7 12 12 8 7 3 5 12 13 13 11 10 9 8 7 7 6 5 5 4 4 3 3 3 3 3 3 3 3 3 2 2 2 3 3 3
4 3 3 2 3 2 2 1 4 5 4 3 5 8 12 11 11 8 4 6 11 12 11 11 10 9 8 7 6 6 5 4 3 3 3 3 3 4 4 4 4 4 4 3 3 2 2 2 2
5 4 2 3 4 2 0 1 4 5 4 4 5 10 9 7 9 6 6 7 11 12 12 11 10 9 8 7 6 5 5 4 3 2 2 3 3 4 5 5 5 5 5 5 4 4 3 3 3
3 2 3 4 8 4 2 2 3 5 3 3 6 10 10 9 7 9 9 9 10 12 12 10 10 9 7 6 5 5 4 4 3 3 3 3 4 4 5 5 6 5 5 5 5 5 5 5 4
2 2 4 6 6 1 2 3 3 4 3 4 8 11 10 10 11 11 8 9 9 10 11 11 10 9 7 6 5 4 4 3 3 3 4 4 5 5 5 6 6 5 5 5 5 5 5 5 5
2 3 4 5 2 1 3 3 3 4 3 4 7 10 8 9 9 8 8 7 9 8 8 11 11 10 8 7 5 3 3 3 3 4 4 5 5 6 6 6 6 5 5 6 5 5 6 6 5
2 2 5 5 1 1 2 2 3 4 3 4 5 8 9 10 8 8 8 6 6 5 5 7 9 9 9 8 6 4 1 1 3 4 4 5 7 8 8 8 7 6 6 6 6 6 7 7 6
3 2 6 3 1 0 2 1 2 3 4 3 3 5 9 11 9 8 7 6 5 5 4 4 4 5 5 6 8 6 4 4 5 5 6 7 9 10 11 10 8 7 7 6 7 7 8 8 7
3 2 4 4 2 1 2 2 2 2 3 2 6 9 12 13 11 8 6 6 5 4 2 4 3 3 2 4 7 6 6 7 6 6 8 8 6 5 6 7 7 6 7 7 8 8 9 8 7
4 3 3 3 3 1 1 2 2 3 3 3 8 11 13 11 9 8 7 7 6 4 2 3 2 3 2 3 2 1 1 3 4 0 1 3 3 2 3 2 6 7 8 8 9 10 8 6 3
5 5 4 3 3 3 1 1 2 2 1 2 7 11 11 10 9 8 6 5 4 4 4 4 3 3 4 3 2 1 1 0 1 2 2 2 2 2 1 0 3 4 6 4 4 6 4 3 3
5 5 4 3 1 3 3 2 2 3 2 3 7 10 10 9 8 6 5 6 5 5 5 4 4 4 5 4 2 2 1 2 2 3 4 3 2 2 2 1 1 1 1 2 2 2 4 4 4
7 5 4 4 3 5 5 4 3 5 4 5 8 9 9 8 7 5 5 6 6 5 4 5 3 4 3 2 1 1 3 2 2 2 3 3 2 2 3 2 1 1 1 1 2 3 3 4 4
6 6 6 5 5 6 7 6 6 5 5 7 8 9 9 8 6 6 6 5 6 6 5 6 2 2 2 2 2 3 2 1 2 2 3 3 2 2 2 3 2 1 1 1 1 2 2 2 2
6 7 8 8 8 6 5 7 8 5 6 8 8 9 9 8 7 5 5 5 5 6 7 7 2 2 4 5 4 2 1 3 3 2 3 4 3 3 3 3 3 2 2 2 1 1 1 1 2
8 7 6 6 7 5 4 6 4 5 7 8 8 9 9 8 8 7 6 4 5 6 6 7 3 3 4 4 2 3 2 3 2 2 3 5 6 5 3 3 3 3 2 2 1 1 1 1 1
6 5 4 3 6 6 7 4 5 8 9 9 9 9 10 10 9 7 7 6 5 6 3 6 6 2 4 2 1 1 2 2 2 3 3 5 6 6 4 3 3 4 3 2 3 1 0 1 1
3 3 2 3 6 8 7 6 6 9 10 8 8 8 10 10 9 8 8 7 7 5 2 5 6 2 3 1 1 3 2 2 2 3 4 4 4 5 4 3 4 4 3 3 3 2 2 0 1
2 4 4 1 3 5 6 7 6 8 9 9 8 8 9 9 9 9 9 8 7 6 3 4 4 4 3 2 2 2 2 1 2 2 3 3 4 5 4 4 3 3 2 3 3 2 2 1 0
6 7 4 3 4 7 7 8 7 8 10 9 9 9 9 9 9 10 9 9 7 7 4 4 5 5 5 2 1 1 1 1 2 1 2 3 4 5 6 5 4 3 2 3 3 2 2 2 1
6 4 3 2 7 10 9 8 7 6 7 6 5 5 7 10 11 12 10 8 8 7 5 3 6 6 5 3 2 2 2 1 2 1 2 2 2 3 4 5 4 4 3 3 3 3 3 2 2
3 4 5 6 7 5 6 6 4 5 6 6 5 4 4 6 8 11 10 9 8 7 5 4 6 5 5 4 3 1 1 1 1 0 1 0 2 2 3 4 5 4 3 4 4 4 2 2 2
1 3 7 9 8 10 8 6 2 5 5 6 7 6 5 5 7 9 10 10 8 7 6 3 6 6 5 4 4 1 1 1 1 1 1 0 2 2 2 2 3 3 3 4 4 4 3 2 2
3 7 11 10 8 7 5 3 3 3 4 3 5 7 7 6 7 8 9 9 7 7 6 5 6 5 5 3 3 3 2 1 1 0 1 1 1 2 2 1 3 3 3 4 4 3 3 3 2
6 6 4 3 2 3 5 4 1 6 6 3 2 4 6 6 7 8 9 9 8 8 7 6 7 6 5 4 4 4 3 1 1 1 1 1 1 1 2 2 2 3 3 3 3 3 3 2 2
5 6 3 3 3 5 6 3 4 9 6 3 1 1 4 7 7 8 10 9 9 8 8 7 7 6 6 5 4 3 3 2 1 1 1 0 0 2 2 1 1 2 3 3 3 3 3 3 3
4 4 5 6 9 8 4 2 4 7 6 3 2 2 3 6 7 8 9 9 9 9 8 7 7 6 6 6 4 3 3 2 1 1 1 0 0 1 2 0 1 1 1 2 3 2 3 3 3
6 6 4 4 4 5 6 4 3 5 4 3 2 3 3 4 6 7 8 9 9 9 8 8 7 7 6 6 5 4 2 2 2 1 0 1 1 1 0 2 1 2 2 2 2 2 2 2 1
7 6 5 5 5 5 5 3 2 4 3 1 1 2 4 5 6 7 8 8 9 9 9 8 8 7 6 6 5 4 3 3 3 3 2 1 3 2 3 1 1 1 1 2 3 1 2 3 3
4 6 6 5 6 6 6 3 5 4 2 1 2 2 4 6 7 7 8 9 9 9 10 9 8 7 6 5 5 5 5 4 3 4 4 3 2 1 0 2 0 0 2 3 2 1 1 1 2
Wind_Direction
212 231 231 233 252 234 257 254 115 71 58 45 27 48 65 54 51 85 123 101 108 112 116 109 101 97 92 85 80 75 70 64 55 44 36 20 353 342 333 322 318 317 315 316 328 337 343 353 355
239 227 239 236 252 262 284 3 85 80 71 62 48 58 74 67 76 92 97 94 104 107 107 102 102 97 92 86 78 71 64 55 46 35 18 357 333 324 314 303 298 293 288 284 282 284 297 315 323
238 241 252 246 249 245 247 54 94 88 62 57 69 64 60 66 77 97 121 115 105 104 101 101 100 95 87 79 73 66 55 40 26 14 347 330 317 312 307 301 294 289 282 274 269 266 268 273 282
206 227 248 248 258 253 140 119 105 100 81 51 86 80 71 58 87 118 130 122 110 107 106 105 102 98 90 79 69 59 45 30 9 348 318 305 303 301 297 294 290 284 281 271 265 266 264 264 264
218 241 248 251 262 268 79 90 81 81 75 53 77 92 88 84 103 120 124 117 111 108 114 120 117 111 103 91 77 62 38 13 350 329 315 307 301 299 294 289 282 280 277 271 264 263 261 258 262
231 247 259 271 281 211 122 97 87 85 70 72 91 105 105 120 120 120 112 109 107 113 122 131 136 135 134 127 111 82 42 4 338 318 309 301 293 286 280 277 274 273 276 272 266 264 254 248 244
234 255 270 290 287 238 87 88 93 95 75 47 65 104 122 129 125 123 115 107 106 113 123 139 152 155 157 148 137 125 97 328 306 296 289 284 278 271 266 260 259 261 264 263 262 263 253 247 240
217 288 289 305 297 21 89 108 85 95 97 47 29 96 132 137 137 130 133 135 133 135 136 130 142 137 151 159 158 165 186 218 248 255 259 263 265 258 253 251 246 248 256 255 254 254 251 245 242
245 248 290 317 329 88 163 144 93 75 113 97 69 85 123 135 144 145 154 150 145 139 148 131 129 121 156 172 153 185 201 210 237 243 240 255 260 253 238 229 221 233 246 250 252 252 246 242 242
208 230 258 275 315 14 171 167 162 168 150 129 105 108 125 141 157 167 173 164 150 146 121 92 84 113 96 49 99 204 199 182 228 245 227 249 279 301 299 176 213 230 241 246 247 248 244 240 236
212 234 253 260 345 326 233 205 202 207 175 136 134 138 146 159 172 174 169 139 119 113 80 53 36 64 77 77 41 2 299 83 339 33 348 322 332 316 306 244 207 224 231 235 239 235 230 221 218
239 257 280 310 347 283 264 227 213 226 200 156 146 150 158 174 179 170 155 125 122 89 78 50 20 35 59 64 7 267 55 46 21 21 357 357 344 325 342 304 293 250 224 204 216 214 216 215 217
234 254 270 275 262 268 269 254 233 224 188 172 152 155 166 180 174 164 144 129 124 114 114 85 36 33 49 94 255 29 62 42 36 43 343 349 352 337 331 311 286 279 257 221 219 233 215 210 208
210 226 245 249 243 252 251 246 233 228 181 174 167 170 178 182 176 162 155 155 145 139 125 105 62 53 29 45 25 47 44 60 47 38 345 349 356 332 329 325 339 325 288 263 242 241 232 216 198
217 219 234 230 223 228 246 251 232 218 187 191 184 180 181 180 173 177 166 156 144 132 118 101 75 33 47 42 13 15 28 48 45 25 356 353 355 347 5 356 348 330 324 327 291 279 262 244 201
222 223 233 234 218 202 224 260 203 186 196 200 197 187 177 178 185 183 162 150 125 113 110 119 105 54 67 60 11 2 34 44 25 31 18 2 5 2 16 8 344 338 343 337 299 250 274 268 223
215 227 226 235 241 209 213 257 169 184 203 203 201 196 178 181 195 176 153 143 116 103 103 122 95 53 75 65 223 100 53 47 21 44 34 10 357 359 16 348 346 354 353 343 328 2 284 274 256
221 243 241 200 206 227 231 250 202 196 204 207 200 197 188 189 186 168 148 130 114 110 116 105 112 102 83 74 343 83 73 29 46 47 42 8 346 3 7 347 11 3 356 347 341 347 331 270 226
329 267 254 218 247 248 259 264 244 198 200 202 206 202 198 189 173 153 139 130 132 134 158 131 144 132 109 58 15 51 59 5 71 52 57 354 1 5 5 3 358 1 359 352 346 352 336 336 348
236 266 303 27 302 279 270 264 249 213 204 205 208 204 195 180 159 144 147 151 153 148 185 178 135 101 93 95 10 130 104 329 106 29 66 26 19 11 4 11 357 1 3 13 358 6 5 342 338
255 289 340 321 281 273 277 268 247 203 192 189 207 221 203 179 167 158 159 154 152 155 181 167 113 124 122 121 53 28 42 337 66 48 79 49 40 28 9 358 353 358 21 12 7 25 21 347 336
272 348 321 300 298 296 281 289 270 177 164 175 189 213 223 173 159 155 156 151 163 162 166 164 131 120 103 107 83 32 89 21 62 16 92 85 96 62 30 357 352 1 21 18 15 33 8 15 4
303 295 286 282 282 281 273 277 297 142 162 178 175 186 200 171 153 152 154 155 160 151 143 131 111 114 116 114 132 243 60 352 39 28 85 328 123 108 72 2 341 359 23 26 22 20 22 20 34
291 277 269 254 257 271 288 290 299 116 103 111 155 172 177 172 154 148 142 141 142 137 134 133 125 129 131 154 175 170 151 224 213 138 55 315 145 124 100 31 352 14 30 27 15 8 27 30 24
244 272 304 319 292 315 308 273 241 89 83 59 87 159 162 157 151 148 143 146 149 148 148 149 145 151 156 182 207 180 179 231 186 91 109 320 16 88 78 42 14 27 16 16 17 0 22 29 29
245 263 278 321 315 289 280 279 95 100 101 101 119 173 153 153 156 154 152 154 156 157 158 162 161 167 170 185 206 187 160 201 121 99 302 262 71 89 97 67 31 38 16 13 22 359 17 25 25
282 278 298 283 282 289 310 327 109 109 111 117 137 146 155 153 152 155 156 160 162 162 164 170 165 175 175 184 193 185 187 167 145 199 245 297 112 92 77 95 192 126 80 30 10 21 24 16 36
279 312 312 299 308 312 311 331 60 74 66 88 126 160 172 157 160 163 159 162 164 162 166 175 176 183 177 182 191 179 180 160 149 266 77 358 359 106 126 310 294 150 154 132 69 20 21 4 74
212 245 261 277 280 295 312 329 57 78 64 42 200 176 168 169 169 166 161 166 164 161 167 178 182 184 175 179 180 169 174 192 182 189 158 224 264 225 170 165 334 42 68 91 100 46 24 358 353
291 277 282 290 301 306 301 306 97 110 148 210 236 197 173 169 169 165 163 168 169 170 175 183 182 178 172 177 176 183 180 182 210 187 184 215 225 325 95 132 203 103 95 80 80 43 23 2 353